{"data":{"norad_id":55405,"epoch":"2026-09-20T11:45:16.082208Z","epoch_age_seconds":97507,"freshness":"FRESH","line1":"1 55405U 23014Q   26263.48976947  .00000206  00000+0  25048-4 0  9992","line2":"2 55405  69.9979 293.3347 0003575 269.4775  90.5975 14.98328143201237","mean_motion":14.98328143,"eccentricity":0.0003575,"inclination_deg":69.9979,"raan_deg":293.3347,"arg_perigee_deg":269.4775,"mean_anomaly_deg":90.5975,"bstar":2.5048e-5,"rev_number":20123,"period_min":96.107118238918,"perigee_km":569.57693755816,"apogee_km":574.54632958116,"semimajor_km":6950.1986335697,"source":"CELESTRAK","updated_at":"2026-09-21T09:00:33.216342Z"}}